Time,TemperatureF,DewpointF,PressureIn,WindDirection,WindDirectionDegrees,WindSpeedMPH,WindSpeedGustMPH,Humidity,HourlyPrecipIn,Conditions,Clouds,dailyrainin,SoftwareType,DateUTC
2013-04-14 00:01:00,59.3,25.2,28.85,South,180,2.0,2.0,27,0.00,,,0.00,WSDL version 420,2013-04-14 04:01:00,
2013-04-14 00:03:00,59.2,25.3,28.85,South,180,0.4,1.1,27,0.00,,,0.00,WSDL version 420,2013-04-14 04:03:00,
2013-04-14 00:07:00,59.1,25.9,28.82,SSW,203,1.0,1.6,28,0.00,,,0.00,WSDL version 420,2013-04-14 04:07:00,
2013-04-14 00:09:00,58.9,25.9,28.82,SSW,203,1.3,1.6,28,0.00,,,0.00,WSDL version 420,2013-04-14 04:09:00,
2013-04-14 00:11:00,58.9,26.2,28.82,South,180,1.6,1.6,29,0.00,,,0.00,WSDL version 420,2013-04-14 04:11:00,
2013-04-14 00:15:00,58.8,26.6,28.82,South,180,1.8,2.0,29,0.00,,,0.00,WSDL version 420,2013-04-14 04:15:00,
2013-04-14 00:19:00,58.6,26.5,28.82,South,180,1.9,2.5,29,0.00,,,0.00,WSDL version 420,2013-04-14 04:19:00,
2013-04-14 00:22:00,58.5,26.7,28.82,SSW,203,0.0,2.5,30,0.00,,,0.00,WSDL version 420,2013-04-14 04:22:00,
2013-04-14 00:23:00,58.4,26.8,28.82,SSW,203,0.0,2.5,30,0.00,,,0.00,WSDL version 420,2013-04-14 04:23:00,
2013-04-14 00:25:00,58.3,27.2,28.82,SSW,203,0.0,2.5,31,0.00,,,0.00,WSDL version 420,2013-04-14 04:25:00,
2013-04-14 00:29:00,58.0,27.6,28.82,SSW,203,0.0,0.0,31,0.00,,,0.00,WSDL version 420,2013-04-14 04:29:00,
2013-04-14 00:31:00,57.9,27.5,28.82,SSW,203,0.0,0.0,31,0.00,,,0.00,WSDL version 420,2013-04-14 04:31:00,
2013-04-14 00:33:00,57.8,27.7,28.82,SSW,203,0.0,0.0,32,0.00,,,0.00,WSDL version 420,2013-04-14 04:33:00,
2013-04-14 00:37:00,57.7,27.8,28.85,North,-999,-999.0,-999.0,31,0.00,,,0.00,WSDL version 420,2013-04-14 04:37:00,
2013-04-14 00:41:00,57.7,27.3,28.85,SSW,203,0.0,2.5,31,0.00,,,0.00,WSDL version 420,2013-04-14 04:41:00,
2013-04-14 00:43:00,57.7,27.4,28.85,SW,214,1.7,2.5,32,0.00,,,0.00,WSDL version 420,2013-04-14 04:43:00,
2013-04-14 00:45:00,57.7,27.5,28.85,SW,225,1.3,2.5,31,0.00,,,0.00,WSDL version 420,2013-04-14 04:45:00,
2013-04-14 00:49:00,57.7,27.3,28.85,SW,225,1.3,2.5,31,0.00,,,0.00,WSDL version 420,2013-04-14 04:49:00,
2013-04-14 00:51:00,57.7,27.3,28.85,WSW,248,0.0,2.0,31,0.00,,,0.00,WSDL version 420,2013-04-14 04:51:00,
2013-04-14 00:57:00,57.9,26.9,28.85,South,180,1.3,3.1,30,0.00,,,0.00,WSDL version 420,2013-04-14 04:57:00,
2013-04-14 00:59:00,58.0,26.9,28.85,South,180,0.9,3.1,30,0.00,,,0.00,WSDL version 420,2013-04-14 04:59:00,
2013-04-14 01:01:00,58.0,26.7,28.85,SSW,203,0.7,3.1,30,0.00,,,0.00,WSDL version 420,2013-04-14 05:01:00,
2013-04-14 01:03:00,58.0,26.7,28.85,South,188,1.1,3.1,30,0.00,,,0.00,WSDL version 420,2013-04-14 05:03:00,
2013-04-14 01:05:00,58.0,26.4,28.85,South,180,0.0,3.1,29,0.00,,,0.00,WSDL version 420,2013-04-14 05:05:00,
2013-04-14 01:07:00,58.2,26.2,28.85,WNW,300,0.0,2.2,29,0.00,,,0.00,WSDL version 420,2013-04-14 05:07:00,
2013-04-14 01:11:00,58.3,26.7,28.85,South,180,0.0,2.2,30,0.00,,,0.00,WSDL version 420,2013-04-14 05:11:00,
2013-04-14 01:13:00,58.3,26.8,28.85,South,180,0.9,2.2,30,0.00,,,0.00,WSDL version 420,2013-04-14 05:13:00,
2013-04-14 01:17:00,58.1,27.2,28.85,South,180,2.5,2.9,31,0.00,,,0.00,WSDL version 420,2013-04-14 05:17:00,
2013-04-14 01:21:00,57.7,27.3,28.85,SSE,165,2.2,2.9,31,0.00,,,0.00,WSDL version 420,2013-04-14 05:21:00,
2013-04-14 01:27:00,57.6,26.4,28.85,ENE,62,0.2,2.5,30,0.00,,,0.00,WSDL version 420,2013-04-14 05:27:00,
2013-04-14 01:29:00,57.7,26.3,28.85,NNE,23,0.4,2.5,30,0.00,,,0.00,WSDL version 420,2013-04-14 05:29:00,
2013-04-14 01:31:00,57.7,26.1,28.85,NNE,23,0.0,1.3,29,0.00,,,0.00,WSDL version 420,2013-04-14 05:31:00,
2013-04-14 01:35:00,57.9,25.9,28.85,NNE,23,0.0,1.3,29,0.00,,,0.00,WSDL version 420,2013-04-14 05:35:00,
2013-04-14 01:37:00,57.9,25.9,28.85,NNE,23,0.0,0.0,29,0.00,,,0.00,WSDL version 420,2013-04-14 05:37:00,
2013-04-14 01:42:00,57.8,26.2,28.85,SSW,203,1.3,2.7,30,0.00,,,0.00,WSDL version 420,2013-04-14 05:42:00,
2013-04-14 01:45:00,57.6,26.6,28.85,NNW,338,0.0,2.7,30,0.00,,,0.00,WSDL version 420,2013-04-14 05:45:00,
2013-04-14 01:47:00,57.6,26.5,28.85,North,360,0.9,2.7,30,0.00,,,0.00,WSDL version 420,2013-04-14 05:47:00,
2013-04-14 01:49:00,57.6,26.4,28.85,South,186,2.1,2.7,30,0.00,,,0.00,WSDL version 420,2013-04-14 05:49:00,
2013-04-14 01:51:00,57.6,26.6,28.85,South,169,2.2,2.9,31,0.00,,,0.00,WSDL version 420,2013-04-14 05:51:00,
2013-04-14 01:53:00,57.4,26.5,28.85,North,360,0.9,2.9,30,0.00,,,0.00,WSDL version 420,2013-04-14 05:53:00,
2013-04-14 01:55:00,57.4,26.3,28.85,South,180,0.0,2.9,30,0.00,,,0.00,WSDL version 420,2013-04-14 05:55:00,
2013-04-14 01:59:00,57.1,26.1,28.85,South,180,1.3,2.9,31,0.00,,,0.00,WSDL version 420,2013-04-14 05:59:00,
2013-04-14 02:01:00,57.1,26.3,28.85,South,180,2.0,3.4,31,0.00,,,0.00,WSDL version 420,2013-04-14 06:01:00,
2013-04-14 02:03:00,56.9,26.7,28.85,North,-999,-999.0,-999.0,32,0.00,,,0.00,WSDL version 420,2013-04-14 06:03:00,
2013-04-14 02:05:00,56.7,26.8,28.85,South,180,1.1,3.4,31,0.00,,,0.00,WSDL version 420,2013-04-14 06:05:00,
2013-04-14 02:07:00,56.7,26.5,28.85,East,90,0.4,3.4,31,0.00,,,0.00,WSDL version 420,2013-04-14 06:07:00,
2013-04-14 02:09:00,56.7,26.4,28.85,South,169,1.2,3.4,31,0.00,,,0.00,WSDL version 420,2013-04-14 06:09:00,
2013-04-14 02:15:00,56.5,26.4,28.85,ENE,68,0.0,3.4,31,0.00,,,0.00,WSDL version 420,2013-04-14 06:15:00,
2013-04-14 02:17:00,56.5,26.3,28.85,NNE,23,0.3,3.4,31,0.00,,,0.00,WSDL version 420,2013-04-14 06:17:00,
2013-04-14 02:23:00,57.0,26.6,28.85,SW,233,0.9,2.0,31,0.00,,,0.00,WSDL version 420,2013-04-14 06:23:00,
2013-04-14 02:29:00,56.8,27.4,28.85,SSW,203,1.0,2.2,33,0.00,,,0.00,WSDL version 420,2013-04-14 06:29:00,
2013-04-14 02:35:00,56.3,27.7,28.85,SSE,158,1.6,2.2,34,0.00,,,0.00,WSDL version 420,2013-04-14 06:35:00,
2013-04-14 02:39:00,56.0,27.9,28.82,South,180,2.2,2.5,34,0.00,,,0.00,WSDL version 420,2013-04-14 06:39:00,
2013-04-14 02:44:00,55.8,27.9,28.82,SSW,203,1.3,2.5,34,0.00,,,0.00,WSDL version 420,2013-04-14 06:44:00,
2013-04-14 02:48:00,55.7,28.4,28.82,SSW,203,2.0,2.5,35,0.00,,,0.00,WSDL version 420,2013-04-14 06:48:00,
2013-04-14 02:49:00,55.5,28.4,28.82,South,180,1.6,2.7,35,0.00,,,0.00,WSDL version 420,2013-04-14 06:49:00,
2013-04-14 02:51:00,55.4,28.3,28.82,SSW,203,1.3,2.7,35,0.00,,,0.00,WSDL version 420,2013-04-14 06:51:00,
2013-04-14 02:53:00,55.4,28.2,28.82,SW,214,0.0,2.7,35,0.00,,,0.00,WSDL version 420,2013-04-14 06:53:00,
2013-04-14 02:55:00,55.4,28.2,28.82,East,95,0.0,2.7,35,0.00,,,0.00,WSDL version 420,2013-04-14 06:55:00,
2013-04-14 02:59:00,55.5,28.4,28.82,North,-999,-999.0,-999.0,35,0.00,,,0.00,WSDL version 420,2013-04-14 06:59:00,
2013-04-14 03:03:00,55.6,28.4,28.82,South,188,0.4,2.7,35,0.00,,,0.00,WSDL version 420,2013-04-14 07:03:00,
2013-04-14 03:05:00,55.6,28.4,28.82,South,180,2.2,3.1,35,0.00,,,0.00,WSDL version 420,2013-04-14 07:05:00,
2013-04-14 03:07:00,55.5,28.3,28.82,South,180,1.5,3.1,35,0.00,,,0.00,WSDL version 420,2013-04-14 07:07:00,
2013-04-14 03:09:00,55.3,28.5,28.82,South,186,2.5,3.1,36,0.00,,,0.00,WSDL version 420,2013-04-14 07:09:00,
2013-04-14 03:15:00,55.3,28.5,28.82,SW,225,0.9,2.9,35,0.00,,,0.00,WSDL version 420,2013-04-14 07:15:00,
2013-04-14 03:19:00,55.5,28.3,28.82,WNW,300,0.0,1.6,35,0.00,,,0.00,WSDL version 420,2013-04-14 07:19:00,
2013-04-14 03:25:00,55.9,28.6,28.82,SSE,153,0.0,1.1,35,0.00,,,0.00,WSDL version 420,2013-04-14 07:25:00,
2013-04-14 03:29:00,56.2,28.5,28.82,North,349,0.4,2.0,34,0.00,,,0.00,WSDL version 420,2013-04-14 07:29:00,
2013-04-14 03:33:00,56.5,28.3,28.82,West,270,0.0,2.0,33,0.00,,,0.00,WSDL version 420,2013-04-14 07:33:00,
2013-04-14 03:35:00,56.6,28.1,28.82,South,169,0.0,2.0,33,0.00,,,0.00,WSDL version 420,2013-04-14 07:35:00,
2013-04-14 03:41:00,56.8,27.9,28.82,South,191,0.0,1.3,33,0.00,,,0.00,WSDL version 420,2013-04-14 07:41:00,
2013-04-14 03:43:00,56.9,27.8,28.82,SW,225,0.0,1.3,32,0.00,,,0.00,WSDL version 420,2013-04-14 07:43:00,
2013-04-14 03:45:00,56.9,27.7,28.82,NW,326,0.6,1.6,32,0.00,,,0.00,WSDL version 420,2013-04-14 07:45:00,
2013-04-14 03:49:00,57.1,27.2,28.82,South,180,0.0,2.5,31,0.00,,,0.00,WSDL version 420,2013-04-14 07:49:00,
2013-04-14 03:51:00,57.2,27.2,28.82,SSW,203,1.1,2.5,32,0.00,,,0.00,WSDL version 420,2013-04-14 07:51:00,
2013-04-14 03:55:00,57.3,27.1,28.82,NW,304,0.0,2.5,31,0.00,,,0.00,WSDL version 420,2013-04-14 07:55:00,
2013-04-14 04:01:00,57.3,26.9,28.82,ESE,109,0.0,2.0,31,0.00,,,0.00,WSDL version 420,2013-04-14 08:01:00,
2013-04-14 04:03:00,57.3,27.0,28.82,SSW,210,0.0,2.0,31,0.00,,,0.00,WSDL version 420,2013-04-14 08:03:00,
2013-04-14 04:07:00,57.3,27.0,28.82,South,173,1.3,2.2,31,0.00,,,0.00,WSDL version 420,2013-04-14 08:07:00,
2013-04-14 04:09:00,57.3,26.8,28.82,SSW,203,0.0,2.2,31,0.00,,,0.00,WSDL version 420,2013-04-14 08:09:00,
2013-04-14 04:11:00,57.2,26.6,28.82,SSW,203,0.0,2.2,31,0.00,,,0.00,WSDL version 420,2013-04-14 08:11:00,
2013-04-14 04:13:00,57.2,26.6,28.82,South,180,0.0,2.2,31,0.00,,,0.00,WSDL version 420,2013-04-14 08:13:00,
2013-04-14 04:17:00,57.0,27.3,28.82,South,180,1.3,1.3,32,0.00,,,0.00,WSDL version 420,2013-04-14 08:17:00,
2013-04-14 04:23:00,56.7,27.2,28.82,South,180,0.0,1.6,32,0.00,,,0.00,WSDL version 420,2013-04-14 08:23:00,
2013-04-14 04:27:00,56.6,27.1,28.82,South,180,0.0,1.6,32,0.00,,,0.00,WSDL version 420,2013-04-14 08:27:00,
2013-04-14 04:29:00,56.6,27.1,28.82,South,180,1.6,2.0,32,0.00,,,0.00,WSDL version 420,2013-04-14 08:29:00,
2013-04-14 04:33:00,56.3,27.0,28.82,North,0,0.0,2.0,33,0.00,,,0.00,WSDL version 420,2013-04-14 08:33:00,
2013-04-14 04:37:00,56.0,27.7,28.82,South,180,2.2,2.7,34,0.00,,,0.00,WSDL version 420,2013-04-14 08:37:00,
2013-04-14 04:39:00,55.8,27.8,28.82,South,180,0.0,2.7,33,0.00,,,0.00,WSDL version 420,2013-04-14 08:39:00,
2013-04-14 04:41:00,55.8,27.4,28.82,South,180,1.3,2.7,33,0.00,,,0.00,WSDL version 420,2013-04-14 08:41:00,
2013-04-14 04:43:00,55.7,27.1,28.82,SE,146,0.8,2.7,33,0.00,,,0.00,WSDL version 420,2013-04-14 08:43:00,
2013-04-14 04:47:00,55.6,26.9,28.82,SSE,158,1.3,2.2,33,0.00,,,0.00,WSDL version 420,2013-04-14 08:47:00,
2013-04-14 04:53:00,55.1,27.5,28.82,South,180,2.1,2.9,35,0.00,,,0.00,WSDL version 420,2013-04-14 08:53:00,
2013-04-14 04:55:00,54.9,27.7,28.82,North,-999,-999.0,-999.0,35,0.00,,,0.00,WSDL version 420,2013-04-14 08:55:00,
2013-04-14 05:01:00,54.5,27.4,28.82,South,180,2.2,2.9,35,0.00,,,0.00,WSDL version 420,2013-04-14 09:01:00,
2013-04-14 05:07:00,54.1,27.1,28.85,South,180,2.5,2.9,35,0.00,,,0.00,WSDL version 420,2013-04-14 09:07:00,
2013-04-14 05:11:00,54.0,27.4,28.85,South,191,2.2,2.9,36,0.00,,,0.00,WSDL version 420,2013-04-14 09:11:00,
2013-04-14 05:13:00,53.9,27.6,28.85,South,180,2.5,2.9,36,0.00,,,0.00,WSDL version 420,2013-04-14 09:13:00,
2013-04-14 05:15:00,53.8,27.5,28.85,South,188,2.3,2.9,36,0.00,,,0.00,WSDL version 420,2013-04-14 09:15:00,
2013-04-14 05:17:00,53.8,27.5,28.85,South,180,1.6,2.9,36,0.00,,,0.00,WSDL version 420,2013-04-14 09:17:00,
2013-04-14 05:23:00,53.7,27.4,28.82,South,180,1.6,2.5,36,0.00,,,0.00,WSDL version 420,2013-04-14 09:23:00,
2013-04-14 05:25:00,53.6,27.3,28.82,South,180,2.5,2.7,36,0.00,,,0.00,WSDL version 420,2013-04-14 09:25:00,
2013-04-14 05:29:00,53.5,27.4,28.82,South,180,2.0,2.7,37,0.00,,,0.00,WSDL version 420,2013-04-14 09:29:00,
2013-04-14 05:33:00,53.3,27.7,28.82,South,180,2.6,3.4,37,0.00,,,0.00,WSDL version 420,2013-04-14 09:33:00,
2013-04-14 05:37:00,53.2,27.6,28.82,South,173,2.1,3.4,37,0.00,,,0.00,WSDL version 420,2013-04-14 09:37:00,
2013-04-14 05:39:00,53.1,27.5,28.82,South,180,2.2,3.4,37,0.00,,,0.00,WSDL version 420,2013-04-14 09:39:00,
2013-04-14 05:43:00,53.2,27.6,28.82,South,169,0.0,2.5,37,0.00,,,0.00,WSDL version 420,2013-04-14 09:43:00,
2013-04-14 05:49:00,53.2,27.7,28.82,South,180,2.2,2.7,37,0.00,,,0.00,WSDL version 420,2013-04-14 09:49:00,
2013-04-14 05:51:00,53.2,27.6,28.82,South,180,2.2,2.7,37,0.00,,,0.00,WSDL version 420,2013-04-14 09:51:00,
2013-04-14 05:55:00,53.2,27.6,28.82,South,180,1.7,2.7,37,0.00,,,0.00,WSDL version 420,2013-04-14 09:55:00,
2013-04-14 05:57:00,53.2,27.7,28.82,South,180,2.2,2.7,37,0.00,,,0.00,WSDL version 420,2013-04-14 09:57:00,
2013-04-14 05:59:00,53.2,27.6,28.82,South,180,2.5,3.1,37,0.00,,,0.00,WSDL version 420,2013-04-14 09:59:00,
2013-04-14 06:03:00,53.1,27.5,28.82,South,180,2.0,3.1,37,0.00,,,0.00,WSDL version 420,2013-04-14 10:03:00,
2013-04-14 06:05:00,53.0,27.4,28.82,South,180,1.7,3.1,37,0.00,,,0.00,WSDL version 420,2013-04-14 10:05:00,
2013-04-14 06:11:00,52.9,27.3,28.82,South,180,1.6,2.9,37,0.00,,,0.00,WSDL version 420,2013-04-14 10:11:00,
2013-04-14 06:13:00,52.9,27.3,28.82,South,180,1.7,2.9,37,0.00,,,0.00,WSDL version 420,2013-04-14 10:13:00,
2013-04-14 06:17:00,52.9,27.3,28.82,South,180,2.1,2.7,37,0.00,,,0.00,WSDL version 420,2013-04-14 10:17:00,
2013-04-14 06:21:00,52.8,27.2,28.82,South,180,2.1,2.9,37,0.00,,,0.00,WSDL version 420,2013-04-14 10:21:00,
2013-04-14 06:23:00,52.7,27.2,28.82,South,180,1.6,2.9,37,0.00,,,0.00,WSDL version 420,2013-04-14 10:23:00,
2013-04-14 06:25:00,52.7,27.2,28.82,South,180,1.2,2.9,37,0.00,,,0.00,WSDL version 420,2013-04-14 10:25:00,
2013-04-14 06:27:00,52.8,27.2,28.82,South,180,0.4,2.9,37,0.00,,,0.00,WSDL version 420,2013-04-14 10:27:00,
2013-04-14 06:33:00,53.0,27.4,28.82,SSW,194,0.0,1.6,37,0.00,,,0.00,WSDL version 420,2013-04-14 10:33:00,
2013-04-14 06:35:00,53.0,27.5,28.82,South,180,1.6,2.0,37,0.00,,,0.00,WSDL version 420,2013-04-14 10:35:00,
2013-04-14 06:41:00,53.1,27.5,28.82,South,180,0.9,2.0,37,0.00,,,0.00,WSDL version 420,2013-04-14 10:41:00,
2013-04-14 06:43:00,53.1,27.5,28.82,South,180,0.0,2.5,37,0.00,,,0.00,WSDL version 420,2013-04-14 10:43:00,
2013-04-14 06:49:00,52.9,27.3,28.82,South,180,0.8,2.5,37,0.00,,,0.00,WSDL version 420,2013-04-14 10:49:00,
2013-04-14 06:51:00,52.9,27.3,28.85,South,173,0.0,2.5,37,0.00,,,0.00,WSDL version 420,2013-04-14 10:51:00,
2013-04-14 06:53:00,52.9,27.3,28.85,SE,135,0.0,1.6,37,0.00,,,0.00,WSDL version 420,2013-04-14 10:53:00,
2013-04-14 06:57:00,53.0,27.5,28.85,East,95,0.0,1.1,37,0.00,,,0.00,WSDL version 420,2013-04-14 10:57:00,
2013-04-14 06:59:00,53.1,27.3,28.85,SE,135,0.0,0.0,36,0.00,,,0.00,WSDL version 420,2013-04-14 10:59:00,
2013-04-14 07:03:00,53.2,27.2,28.85,South,180,1.9,2.7,37,0.00,,,0.00,WSDL version 420,2013-04-14 11:03:00,
2013-04-14 07:05:00,53.2,27.5,28.85,South,180,2.2,2.7,37,0.00,,,0.00,WSDL version 420,2013-04-14 11:05:00,
2013-04-14 07:11:00,53.2,27.6,28.85,South,180,2.0,2.7,37,0.00,,,0.00,WSDL version 420,2013-04-14 11:11:00,
2013-04-14 07:13:00,53.0,27.5,28.85,South,180,2.3,2.7,37,0.00,,,0.00,WSDL version 420,2013-04-14 11:13:00,
2013-04-14 07:17:00,52.9,27.3,28.85,South,180,1.1,2.7,37,0.00,,,0.00,WSDL version 420,2013-04-14 11:17:00,
2013-04-14 07:21:00,53.0,27.4,28.85,South,180,1.3,2.7,37,0.00,,,0.00,WSDL version 420,2013-04-14 11:21:00,
2013-04-14 07:23:00,53.0,27.5,28.85,South,180,1.6,2.5,37,0.00,,,0.00,WSDL version 420,2013-04-14 11:23:00,
2013-04-14 07:27:00,53.1,27.5,28.85,South,180,2.2,2.5,37,0.00,,,0.00,WSDL version 420,2013-04-14 11:27:00,
2013-04-14 07:31:00,52.9,27.4,28.85,South,180,2.5,2.5,37,0.00,,,0.00,WSDL version 420,2013-04-14 11:31:00,
2013-04-14 07:33:00,52.9,27.3,28.85,South,180,2.2,2.5,37,0.00,,,0.00,WSDL version 420,2013-04-14 11:33:00,
2013-04-14 07:37:00,52.9,27.3,28.85,South,180,1.7,2.5,37,0.00,,,0.00,WSDL version 420,2013-04-14 11:37:00,
2013-04-14 07:39:00,52.9,27.3,28.85,South,180,1.6,2.5,37,0.00,,,0.00,WSDL version 420,2013-04-14 11:39:00,
2013-04-14 07:41:00,52.9,27.3,28.85,South,180,1.3,2.5,37,0.00,,,0.00,WSDL version 420,2013-04-14 11:41:00,
2013-04-14 07:45:00,52.9,27.4,28.85,South,180,2.5,2.5,37,0.00,,,0.00,WSDL version 420,2013-04-14 11:45:00,
2013-04-14 07:47:00,53.0,27.5,28.85,South,180,1.6,2.5,37,0.00,,,0.00,WSDL version 420,2013-04-14 11:47:00,
2013-04-14 07:51:00,53.1,27.6,28.85,South,180,2.2,2.5,38,0.00,,,0.00,WSDL version 420,2013-04-14 11:51:00,
2013-04-14 07:53:00,53.1,27.8,28.85,South,180,1.8,2.5,38,0.00,,,0.00,WSDL version 420,2013-04-14 11:53:00,
2013-04-14 07:59:00,53.2,27.8,28.85,SE,135,0.0,2.5,37,0.00,,,0.00,WSDL version 420,2013-04-14 11:59:00,
2013-04-14 08:01:00,53.4,27.8,28.85,South,169,0.0,1.6,37,0.00,,,0.00,WSDL version 420,2013-04-14 12:01:00,
2013-04-14 08:07:00,53.7,28.1,28.85,South,180,0.9,2.5,37,0.00,,,0.00,WSDL version 420,2013-04-14 12:07:00,
2013-04-14 08:11:00,53.9,28.2,28.85,South,180,0.0,2.5,37,0.00,,,0.00,WSDL version 420,2013-04-14 12:11:00,
2013-04-14 08:33:00,55.5,29.6,28.85,SSE,158,0.0,0.0,37,0.00,,,0.00,WSDL version 420,2013-04-14 12:33:00,
2013-04-14 08:35:00,55.5,29.5,28.85,SSE,158,0.0,0.0,36,0.00,,,0.00,WSDL version 420,2013-04-14 12:35:00,
2013-04-14 08:39:00,55.8,29.3,28.85,SSE,158,0.0,0.0,36,0.00,,,0.00,WSDL version 420,2013-04-14 12:39:00,
2013-04-14 08:41:00,56.0,29.4,28.85,SSE,150,0.0,0.0,36,0.00,,,0.00,WSDL version 420,2013-04-14 12:41:00,
2013-04-14 08:43:00,56.1,29.6,28.85,SSE,158,0.0,0.0,36,0.00,,,0.00,WSDL version 420,2013-04-14 12:43:00,
2013-04-14 08:49:00,56.7,30.1,28.85,ESE,119,0.0,0.0,36,0.00,,,0.00,WSDL version 420,2013-04-14 12:49:00,
2013-04-14 08:53:00,57.1,30.3,28.88,SSE,158,0.0,0.0,35,0.00,,,0.00,WSDL version 420,2013-04-14 12:53:00,
2013-04-14 08:57:00,57.5,30.3,28.88,SSE,152,0.0,0.0,36,0.00,,,0.00,WSDL version 420,2013-04-14 12:57:00,
2013-04-14 08:59:00,57.7,30.8,28.88,SE,135,0.0,0.0,36,0.00,,,0.00,WSDL version 420,2013-04-14 12:59:00,
2013-04-14 09:05:00,58.3,30.8,28.88,SE,128,0.0,0.0,35,0.00,,,0.00,WSDL version 420,2013-04-14 13:05:00,
2013-04-14 09:09:00,58.7,31.2,28.88,South,180,0.0,0.0,35,0.00,,,0.00,WSDL version 420,2013-04-14 13:09:00,
2013-04-14 09:11:00,59.0,31.4,28.88,South,180,0.0,0.0,35,0.00,,,0.00,WSDL version 420,2013-04-14 13:11:00,
2013-04-14 09:15:00,59.4,31.8,28.88,SE,124,0.0,0.0,35,0.00,,,0.00,WSDL version 420,2013-04-14 13:15:00,
2013-04-14 09:17:00,59.6,32.0,28.88,SE,143,0.0,0.0,35,0.00,,,0.00,WSDL version 420,2013-04-14 13:17:00,
2013-04-14 09:23:00,60.4,32.2,28.88,SSE,158,0.0,0.0,34,0.00,,,0.00,WSDL version 420,2013-04-14 13:23:00,
2013-04-14 09:25:00,60.7,32.2,28.88,SSE,158,0.0,0.0,34,0.00,,,0.00,WSDL version 420,2013-04-14 13:25:00,
2013-04-14 09:29:00,61.1,32.6,28.88,SE,135,0.0,0.0,34,0.00,,,0.00,WSDL version 420,2013-04-14 13:29:00,
2013-04-14 09:33:00,61.7,33.0,28.88,NNE,23,0.0,0.0,34,0.00,,,0.00,WSDL version 420,2013-04-14 13:33:00,
2013-04-14 09:35:00,61.9,33.3,28.88,NNE,23,0.0,0.0,34,0.00,,,0.00,WSDL version 420,2013-04-14 13:35:00,
2013-04-14 09:37:00,62.2,33.4,28.88,NNE,23,0.0,0.0,33,0.00,,,0.00,WSDL version 420,2013-04-14 13:37:00,
2013-04-14 09:41:00,62.8,33.3,28.88,NNE,23,0.0,0.0,33,0.00,,,0.00,WSDL version 420,2013-04-14 13:41:00,
2013-04-14 09:47:00,63.7,34.1,28.88,NNE,23,0.0,0.0,33,0.00,,,0.00,WSDL version 420,2013-04-14 13:47:00,
2013-04-14 09:49:00,64.0,34.0,28.88,NNE,23,0.0,0.0,32,0.00,,,0.00,WSDL version 420,2013-04-14 13:49:00,
2013-04-14 09:53:00,64.6,33.3,28.88,NE,53,0.0,1.3,30,0.00,,,0.00,WSDL version 420,2013-04-14 13:53:00,
2013-04-14 09:55:00,64.8,32.9,28.88,NE,45,0.4,1.3,29,0.00,,,0.00,WSDL version 420,2013-04-14 13:55:00,
2013-04-14 09:57:00,65.0,32.2,28.88,West,270,1.1,1.3,28,0.00,,,0.00,WSDL version 420,2013-04-14 13:57:00,
2013-04-14 10:01:00,65.5,31.6,28.88,North,-999,-999.0,-999.0,28,0.00,,,0.00,WSDL version 420,2013-04-14 14:01:00,
2013-04-14 10:03:00,65.7,31.4,28.88,SSW,203,1.2,1.3,27,0.00,,,0.00,WSDL version 420,2013-04-14 14:03:00,
2013-04-14 10:05:00,65.8,31.2,28.88,SSE,158,0.4,1.3,27,0.00,,,0.00,WSDL version 420,2013-04-14 14:05:00,
2013-04-14 10:09:00,66.1,31.2,28.88,NW,308,1.3,2.2,27,0.00,,,0.00,WSDL version 420,2013-04-14 14:09:00,
2013-04-14 10:11:00,66.2,30.8,28.88,North,360,1.1,2.7,26,0.00,,,0.00,WSDL version 420,2013-04-14 14:11:00,
2013-04-14 10:13:00,66.3,30.6,28.88,NW,315,1.6,2.7,26,0.00,,,0.00,WSDL version 420,2013-04-14 14:13:00,
2013-04-14 10:15:00,66.4,30.5,28.88,North,360,2.0,2.7,26,0.00,,,0.00,WSDL version 420,2013-04-14 14:15:00,
2013-04-14 10:21:00,66.9,30.9,28.88,WNW,293,0.0,2.2,26,0.00,,,0.00,WSDL version 420,2013-04-14 14:21:00,
2013-04-14 10:23:00,67.1,31.1,28.88,ENE,68,0.0,2.2,26,0.00,,,0.00,WSDL version 420,2013-04-14 14:23:00,
2013-04-14 10:27:00,67.5,30.8,28.88,North,-999,-999.0,-999.0,25,0.00,,,0.00,WSDL version 420,2013-04-14 14:27:00,
2013-04-14 10:29:00,67.6,30.6,28.88,South,191,1.1,3.1,25,0.00,,,0.00,WSDL version 420,2013-04-14 14:29:00,
2013-04-14 10:31:00,67.7,30.7,28.88,North,0,0.0,3.1,25,0.00,,,0.00,WSDL version 420,2013-04-14 14:31:00,
2013-04-14 10:33:00,67.9,30.8,28.88,SSW,203,0.6,3.1,25,0.00,,,0.00,WSDL version 420,2013-04-14 14:33:00,
2013-04-14 10:38:00,68.3,30.4,28.88,NNE,23,1.1,3.1,24,0.00,,,0.00,WSDL version 420,2013-04-14 14:38:00,
2013-04-14 10:40:00,68.5,30.4,28.88,ESE,113,1.7,2.0,24,0.00,,,0.00,WSDL version 420,2013-04-14 14:40:00,
2013-04-14 10:44:00,68.7,30.5,28.88,North,-999,-999.0,-999.0,24,0.00,,,0.00,WSDL version 420,2013-04-14 14:44:00,
2013-04-14 10:46:00,68.8,30.6,28.88,North,360,1.1,1.6,24,0.00,,,0.00,WSDL version 420,2013-04-14 14:46:00,
2013-04-14 10:50:00,69.3,31.0,28.88,NNE,23,2.5,2.5,24,0.00,,,0.00,WSDL version 420,2013-04-14 14:50:00,
2013-04-14 10:52:00,69.4,31.1,28.88,NW,315,2.0,2.5,24,0.00,,,0.00,WSDL version 420,2013-04-14 14:52:00,
2013-04-14 10:58:00,69.9,30.5,28.88,North,360,1.6,2.5,23,0.00,,,0.00,WSDL version 420,2013-04-14 14:58:00,
2013-04-14 11:00:00,70.1,30.6,28.88,North,-999,-999.0,-999.0,23,0.00,,,0.00,WSDL version 420,2013-04-14 15:00:00,
2013-04-14 11:04:00,69.9,30.5,28.88,North,360,2.7,3.1,23,0.00,,,0.00,WSDL version 420,2013-04-14 15:04:00,
2013-04-14 11:08:00,69.8,30.4,28.88,South,180,0.9,3.1,23,0.00,,,0.00,WSDL version 420,2013-04-14 15:08:00,
2013-04-14 11:12:00,70.3,30.8,28.88,South,180,1.3,1.6,23,0.00,,,0.00,WSDL version 420,2013-04-14 15:12:00,
2013-04-14 11:14:00,70.4,30.9,28.88,North,0,0.0,1.6,23,0.00,,,0.00,WSDL version 420,2013-04-14 15:14:00,
2013-04-14 11:18:00,70.5,31.0,28.88,North,360,0.9,1.6,23,0.00,,,0.00,WSDL version 420,2013-04-14 15:18:00,
2013-04-14 11:20:00,70.6,31.1,28.88,North,0,0.0,1.6,23,0.00,,,0.00,WSDL version 420,2013-04-14 15:20:00,
2013-04-14 11:24:00,70.9,31.3,28.88,WNW,293,0.0,2.7,23,0.00,,,0.00,WSDL version 420,2013-04-14 15:24:00,
2013-04-14 11:30:00,71.2,31.6,28.88,North,360,2.7,3.4,23,0.00,,,0.00,WSDL version 420,2013-04-14 15:30:00,
2013-04-14 11:32:00,71.1,31.5,28.88,North,360,2.2,3.4,23,0.00,,,0.00,WSDL version 420,2013-04-14 15:32:00,
2013-04-14 11:36:00,71.2,31.5,28.88,SE,135,0.0,3.4,23,0.00,,,0.00,WSDL version 420,2013-04-14 15:36:00,
2013-04-14 11:38:00,71.3,31.4,28.88,North,-999,-999.0,-999.0,22,0.00,,,0.00,WSDL version 420,2013-04-14 15:38:00,
2013-04-14 11:40:00,71.6,31.2,28.88,North,-999,-999.0,-999.0,22,0.00,,,0.00,WSDL version 420,2013-04-14 15:40:00,
2013-04-14 11:42:00,71.8,30.9,28.88,NW,315,0.0,0.0,22,0.00,,,0.00,WSDL version 420,2013-04-14 15:42:00,
2013-04-14 11:44:00,71.9,31.0,28.88,NW,315,1.1,0.0,22,0.00,,,0.00,WSDL version 420,2013-04-14 15:44:00,
2013-04-14 11:48:00,72.1,31.2,28.88,WNW,293,0.4,0.0,22,0.00,,,0.00,WSDL version 420,2013-04-14 15:48:00,
2013-04-14 11:54:00,72.3,31.4,28.88,North,0,0.0,0.0,22,0.00,,,0.00,WSDL version 420,2013-04-14 15:54:00,
2013-04-14 11:58:00,72.4,31.4,28.88,SW,225,0.0,0.0,22,0.00,,,0.00,WSDL version 420,2013-04-14 15:58:00,
2013-04-14 12:02:00,72.6,31.6,28.88,NNW,338,0.4,0.0,22,0.00,,,0.00,WSDL version 420,2013-04-14 16:02:00,
2013-04-14 12:04:00,72.6,31.7,28.88,North,0,0.0,0.0,22,0.00,,,0.00,WSDL version 420,2013-04-14 16:04:00,
2013-04-14 12:06:00,72.6,31.6,28.88,NNE,23,1.6,2.0,22,0.00,,,0.00,WSDL version 420,2013-04-14 16:06:00,
2013-04-14 12:10:00,72.5,31.5,28.88,North,360,0.0,2.0,22,0.00,,,0.00,WSDL version 420,2013-04-14 16:10:00,
2013-04-14 12:14:00,72.6,31.6,28.88,North,-999,-999.0,-999.0,22,0.00,,,0.00,WSDL version 420,2013-04-14 16:14:00,
2013-04-14 12:16:00,72.6,31.6,28.88,SW,225,1.3,1.3,22,0.00,,,0.00,WSDL version 420,2013-04-14 16:16:00,
2013-04-14 12:18:00,72.4,31.5,28.88,North,360,1.6,0.0,22,0.00,,,0.00,WSDL version 420,2013-04-14 16:18:00,
2013-04-14 12:20:00,72.4,31.4,28.88,North,0,0.0,0.0,22,0.00,,,0.00,WSDL version 420,2013-04-14 16:20:00,
2013-04-14 12:24:00,72.3,31.4,28.88,WSW,255,0.4,1.6,22,0.00,,,0.00,WSDL version 420,2013-04-14 16:24:00,
2013-04-14 12:26:00,72.2,31.3,28.88,WNW,293,0.9,1.6,22,0.00,,,0.00,WSDL version 420,2013-04-14 16:26:00,
2013-04-14 12:28:00,72.2,31.3,28.88,WNW,293,0.4,1.6,22,0.00,,,0.00,WSDL version 420,2013-04-14 16:28:00,
2013-04-14 12:34:00,72.5,31.5,28.88,West,270,0.0,0.0,22,0.00,,,0.00,WSDL version 420,2013-04-14 16:34:00,
2013-04-14 12:40:00,72.6,31.7,28.88,North,-999,-999.0,-999.0,22,0.00,,,0.00,WSDL version 420,2013-04-14 16:40:00,
2013-04-14 12:42:00,72.5,31.6,28.88,North,360,1.6,2.5,22,0.00,,,0.00,WSDL version 420,2013-04-14 16:42:00,
2013-04-14 12:44:00,72.4,31.5,28.88,North,360,0.0,2.5,22,0.00,,,0.00,WSDL version 420,2013-04-14 16:44:00,
2013-04-14 12:48:00,72.5,31.5,28.88,SW,225,0.0,2.0,22,0.00,,,0.00,WSDL version 420,2013-04-14 16:48:00,
2013-04-14 12:50:00,72.6,31.6,28.88,SSW,203,0.0,2.0,22,0.00,,,0.00,WSDL version 420,2013-04-14 16:50:00,
2013-04-14 12:54:00,72.8,31.8,28.88,North,-999,-999.0,-999.0,22,0.00,,,0.00,WSDL version 420,2013-04-14 16:54:00,
2013-04-14 12:56:00,72.8,31.8,28.88,North,360,0.0,0.0,22,0.00,,,0.00,WSDL version 420,2013-04-14 16:56:00,
2013-04-14 12:58:00,72.8,31.8,28.88,North,360,0.0,0.0,22,0.00,,,0.00,WSDL version 420,2013-04-14 16:58:00,
2013-04-14 13:00:00,72.8,31.8,28.88,North,-999,-999.0,-999.0,22,0.00,,,0.00,WSDL version 420,2013-04-14 17:00:00,
2013-04-14 13:04:00,73.1,32.0,28.88,West,270,0.0,0.0,22,0.00,,,0.00,WSDL version 420,2013-04-14 17:04:00,
2013-04-14 13:08:00,73.3,32.2,28.88,SSW,203,0.0,1.1,22,0.00,,,0.00,WSDL version 420,2013-04-14 17:08:00,
2013-04-14 13:14:00,73.4,32.3,28.88,North,-999,-999.0,-999.0,22,0.00,,,0.00,WSDL version 420,2013-04-14 17:14:00,
2013-04-14 13:16:00,73.4,32.3,28.88,South,174,0.0,1.3,22,0.00,,,0.00,WSDL version 420,2013-04-14 17:16:00,
2013-04-14 13:18:00,73.4,32.3,28.88,SSW,203,0.0,1.3,22,0.00,,,0.00,WSDL version 420,2013-04-14 17:18:00,
2013-04-14 13:20:00,73.4,32.3,28.88,SSW,203,0.0,1.3,22,0.00,,,0.00,WSDL version 420,2013-04-14 17:20:00,
2013-04-14 13:24:00,73.3,32.9,28.88,SE,135,0.0,1.6,23,0.00,,,0.00,WSDL version 420,2013-04-14 17:24:00,
2013-04-14 13:26:00,73.2,33.2,28.88,SSW,210,1.9,2.9,23,0.00,,,0.00,WSDL version 420,2013-04-14 17:26:00,
2013-04-14 13:30:00,73.0,33.1,28.88,North,353,0.0,2.9,23,0.00,,,0.00,WSDL version 420,2013-04-14 17:30:00,
2013-04-14 13:34:00,72.9,32.9,28.88,SSW,203,1.8,2.9,23,0.00,,,0.00,WSDL version 420,2013-04-14 17:34:00,
2013-04-14 13:36:00,72.9,32.9,28.88,North,-999,-999.0,-999.0,23,0.00,,,0.00,WSDL version 420,2013-04-14 17:36:00,
2013-04-14 13:40:00,72.7,32.8,28.88,SSW,203,0.0,2.7,23,0.00,,,0.00,WSDL version 420,2013-04-14 17:40:00,
2013-04-14 13:44:00,72.6,32.7,28.88,SSW,203,0.7,2.0,23,0.00,,,0.00,WSDL version 420,2013-04-14 17:44:00,
2013-04-14 13:50:00,72.4,32.5,28.88,SSE,158,1.1,2.0,23,0.00,,,0.00,WSDL version 420,2013-04-14 17:50:00,
2013-04-14 13:52:00,72.3,32.5,28.88,SSW,203,0.9,2.0,23,0.00,,,0.00,WSDL version 420,2013-04-14 17:52:00,
2013-04-14 13:54:00,72.3,32.4,28.88,SSE,158,1.3,2.0,23,0.00,,,0.00,WSDL version 420,2013-04-14 17:54:00,
2013-04-14 14:00:00,72.0,32.2,28.88,North,360,0.9,1.3,23,0.00,,,0.00,WSDL version 420,2013-04-14 18:00:00,
2013-04-14 14:02:00,72.0,32.2,28.88,South,185,0.4,1.6,23,0.00,,,0.00,WSDL version 420,2013-04-14 18:02:00,
2013-04-14 14:06:00,71.9,32.1,28.88,South,180,0.9,2.5,23,0.00,,,0.00,WSDL version 420,2013-04-14 18:06:00,
2013-04-14 14:08:00,71.8,32.0,28.88,NNW,330,1.1,2.5,23,0.00,,,0.00,WSDL version 420,2013-04-14 18:08:00,
2013-04-14 14:10:00,71.8,32.0,28.88,NE,53,0.9,2.5,23,0.00,,,0.00,WSDL version 420,2013-04-14 18:10:00,
2013-04-14 14:14:00,71.6,31.9,28.88,SW,231,0.0,2.5,23,0.00,,,0.00,WSDL version 420,2013-04-14 18:14:00,
2013-04-14 14:16:00,71.6,31.9,28.88,SW,233,0.0,1.6,23,0.00,,,0.00,WSDL version 420,2013-04-14 18:16:00,
2013-04-14 14:18:00,71.6,31.9,28.88,SSW,203,0.7,1.3,23,0.00,,,0.00,WSDL version 420,2013-04-14 18:18:00,
2013-04-14 14:20:00,71.6,31.9,28.88,South,191,0.7,1.3,23,0.00,,,0.00,WSDL version 420,2013-04-14 18:20:00,
2013-04-14 14:24:00,71.6,31.9,28.85,South,180,1.1,2.0,23,0.00,,,0.00,WSDL version 420,2013-04-14 18:24:00,
2013-04-14 14:26:00,71.6,31.9,28.85,South,180,0.0,2.0,23,0.00,,,0.00,WSDL version 420,2013-04-14 18:26:00,
2013-04-14 14:28:00,71.6,32.1,28.85,South,191,0.4,2.0,23,0.00,,,0.00,WSDL version 420,2013-04-14 18:28:00,
2013-04-14 14:34:00,71.7,31.9,28.85,SW,219,0.2,3.4,23,0.00,,,0.00,WSDL version 420,2013-04-14 18:34:00,
2013-04-14 14:36:00,71.6,31.9,28.85,North,0,0.0,3.4,23,0.00,,,0.00,WSDL version 420,2013-04-14 18:36:00,
2013-04-14 14:42:00,71.6,32.1,28.85,SE,135,0.4,1.3,23,0.00,,,0.00,WSDL version 420,2013-04-14 18:42:00,
2013-04-14 14:44:00,71.5,32.2,28.85,SE,146,0.7,2.5,24,0.00,,,0.00,WSDL version 420,2013-04-14 18:44:00,
2013-04-14 14:46:00,71.5,32.6,28.85,NW,304,2.2,2.5,24,0.00,,,0.00,WSDL version 420,2013-04-14 18:46:00,
2013-04-14 14:48:00,71.3,32.7,28.85,ESE,105,1.6,2.5,24,0.00,,,0.00,WSDL version 420,2013-04-14 18:48:00,
2013-04-14 14:54:00,71.2,32.6,28.85,South,180,0.0,2.5,24,0.00,,,0.00,WSDL version 420,2013-04-14 18:54:00,
2013-04-14 14:56:00,71.2,32.6,28.85,South,180,1.4,2.2,24,0.00,,,0.00,WSDL version 420,2013-04-14 18:56:00,
2013-04-14 14:58:00,71.1,32.5,28.85,South,174,0.6,2.2,24,0.00,,,0.00,WSDL version 420,2013-04-14 18:58:00,
2013-04-14 15:02:00,71.1,32.5,28.85,South,186,0.4,2.2,24,0.00,,,0.00,WSDL version 420,2013-04-14 19:02:00,
2013-04-14 15:06:00,71.1,32.5,28.85,South,180,0.9,2.2,24,0.00,,,0.00,WSDL version 420,2013-04-14 19:06:00,
2013-04-14 15:12:00,70.9,32.3,28.85,South,180,0.9,1.6,24,0.00,,,0.00,WSDL version 420,2013-04-14 19:12:00,
2013-04-14 15:14:00,70.9,32.3,28.85,South,180,0.0,1.6,24,0.00,,,0.00,WSDL version 420,2013-04-14 19:14:00,
2013-04-14 15:18:00,70.7,32.2,28.85,WSW,240,0.7,1.6,24,0.00,,,0.00,WSDL version 420,2013-04-14 19:18:00,
2013-04-14 15:20:00,70.6,32.1,28.85,North,0,0.0,1.6,24,0.00,,,0.00,WSDL version 420,2013-04-14 19:20:00,
2013-04-14 15:26:00,70.5,32.9,28.85,North,360,0.0,1.6,25,0.00,,,0.00,WSDL version 420,2013-04-14 19:26:00,
2013-04-14 15:28:00,70.5,33.0,28.85,NNE,30,1.0,1.6,25,0.00,,,0.00,WSDL version 420,2013-04-14 19:28:00,
2013-04-14 15:30:00,70.5,33.0,28.85,SSE,158,0.0,1.6,25,0.00,,,0.00,WSDL version 420,2013-04-14 19:30:00,
2013-04-14 15:32:00,70.5,33.0,28.85,SSE,158,0.0,1.6,25,0.00,,,0.00,WSDL version 420,2013-04-14 19:32:00,
2013-04-14 15:34:00,70.5,33.0,28.85,SSE,158,0.0,1.6,25,0.00,,,0.00,WSDL version 420,2013-04-14 19:34:00,
2013-04-14 15:38:00,70.5,33.0,28.85,South,180,0.6,2.0,25,0.00,,,0.00,WSDL version 420,2013-04-14 19:38:00,
2013-04-14 15:42:00,70.4,33.0,28.85,South,180,0.9,2.0,25,0.00,,,0.00,WSDL version 420,2013-04-14 19:42:00,
2013-04-14 15:48:00,70.3,32.9,28.85,North,-999,-999.0,-999.0,25,0.00,,,0.00,WSDL version 420,2013-04-14 19:48:00,
2013-04-14 15:54:00,70.3,32.9,28.85,South,180,0.9,2.2,25,0.00,,,0.00,WSDL version 420,2013-04-14 19:54:00,
2013-04-14 15:58:00,70.2,32.8,28.85,NW,315,0.0,2.2,25,0.00,,,0.00,WSDL version 420,2013-04-14 19:58:00,
2013-04-14 16:00:00,70.2,32.7,28.85,North,0,0.0,2.2,25,0.00,,,0.00,WSDL version 420,2013-04-14 20:00:00,
2013-04-14 16:06:00,70.1,32.7,28.85,South,180,1.6,2.2,25,0.00,,,0.00,WSDL version 420,2013-04-14 20:06:00,
2013-04-14 16:12:00,70.0,33.2,28.85,SE,124,0.0,2.2,26,0.00,,,0.00,WSDL version 420,2013-04-14 20:12:00,
2013-04-14 16:14:00,70.0,33.6,28.85,ESE,108,0.0,2.2,26,0.00,,,0.00,WSDL version 420,2013-04-14 20:14:00,
2013-04-14 16:20:00,69.8,33.4,28.85,SSW,203,0.4,1.6,26,0.00,,,0.00,WSDL version 420,2013-04-14 20:20:00,
2013-04-14 16:22:00,69.8,33.4,28.85,South,191,1.6,1.6,26,0.00,,,0.00,WSDL version 420,2013-04-14 20:22:00,
2013-04-14 16:24:00,69.7,33.4,28.85,South,180,0.0,1.6,26,0.00,,,0.00,WSDL version 420,2013-04-14 20:24:00,
2013-04-14 16:28:00,69.6,33.3,28.85,South,180,0.9,2.0,26,0.00,,,0.00,WSDL version 420,2013-04-14 20:28:00,
2013-04-14 16:30:00,69.5,33.2,28.85,South,180,0.0,2.0,26,0.00,,,0.00,WSDL version 420,2013-04-14 20:30:00,
2013-04-14 16:36:00,69.4,33.0,28.85,North,-999,-999.0,-999.0,26,0.00,,,0.00,WSDL version 420,2013-04-14 20:36:00,
2013-04-14 16:38:00,69.3,33.0,28.85,South,180,1.1,2.2,26,0.00,,,0.00,WSDL version 420,2013-04-14 20:38:00,
2013-04-14 16:42:00,69.3,32.9,28.85,South,180,0.9,2.2,26,0.00,,,0.00,WSDL version 420,2013-04-14 20:42:00,
2013-04-14 16:46:00,69.1,33.4,28.85,South,180,0.0,2.2,27,0.00,,,0.00,WSDL version 420,2013-04-14 20:46:00,
2013-04-14 16:48:00,69.0,33.7,28.85,SE,135,0.4,2.0,27,0.00,,,0.00,WSDL version 420,2013-04-14 20:48:00,
2013-04-14 16:52:00,68.8,33.7,28.85,NE,45,0.0,1.6,27,0.00,,,0.00,WSDL version 420,2013-04-14 20:52:00,
2013-04-14 16:54:00,68.8,33.5,28.85,North,-999,-999.0,-999.0,27,0.00,,,0.00,WSDL version 420,2013-04-14 20:54:00,
2013-04-14 17:00:00,68.7,33.8,28.85,South,180,0.0,0.0,28,0.00,,,0.00,WSDL version 420,2013-04-14 21:00:00,
2013-04-14 17:02:00,68.6,34.1,28.85,North,0,0.0,0.0,28,0.00,,,0.00,WSDL version 420,2013-04-14 21:02:00,
2013-04-14 17:08:00,68.5,34.1,28.85,ESE,113,0.0,0.0,28,0.00,,,0.00,WSDL version 420,2013-04-14 21:08:00,
2013-04-14 17:10:00,68.4,34.0,28.85,ESE,120,0.0,0.0,28,0.00,,,0.00,WSDL version 420,2013-04-14 21:10:00,
2013-04-14 17:14:00,68.3,34.2,28.85,SSW,203,0.0,0.0,28,0.00,,,0.00,WSDL version 420,2013-04-14 21:14:00,
2013-04-14 17:16:00,68.2,34.5,28.85,South,180,0.0,0.0,29,0.00,,,0.00,WSDL version 420,2013-04-14 21:16:00,
2013-04-14 17:20:00,68.2,34.7,28.85,North,-999,-999.0,-999.0,29,0.00,,,0.00,WSDL version 420,2013-04-14 21:20:00,
2013-04-14 17:22:00,68.2,35.0,28.85,South,180,0.0,0.0,30,0.00,,,0.00,WSDL version 420,2013-04-14 21:22:00,
2013-04-14 17:24:00,68.2,35.3,28.85,South,180,0.0,0.0,30,0.00,,,0.00,WSDL version 420,2013-04-14 21:24:00,
2013-04-14 17:28:00,68.0,35.4,28.85,South,180,0.0,0.0,30,0.00,,,0.00,WSDL version 420,2013-04-14 21:28:00,
2013-04-14 17:30:00,68.0,35.4,28.85,South,180,0.0,0.0,30,0.00,,,0.00,WSDL version 420,2013-04-14 21:30:00,
2013-04-14 17:34:00,67.9,35.4,28.85,North,360,0.4,0.0,30,0.00,,,0.00,WSDL version 420,2013-04-14 21:34:00,
2013-04-14 17:36:00,67.9,35.3,28.85,ENE,68,0.0,0.0,30,0.00,,,0.00,WSDL version 420,2013-04-14 21:36:00,
2013-04-14 17:38:00,67.8,35.4,28.85,SW,225,0.0,1.3,31,0.00,,,0.00,WSDL version 420,2013-04-14 21:38:00,
2013-04-14 17:40:00,67.8,35.7,28.85,NE,56,0.6,1.3,31,0.00,,,0.00,WSDL version 420,2013-04-14 21:40:00,
2013-04-14 17:46:00,67.8,36.1,28.85,East,84,0.0,1.3,31,0.00,,,0.00,WSDL version 420,2013-04-14 21:46:00,
2013-04-14 17:48:00,67.7,36.2,28.85,North,360,0.0,0.0,32,0.00,,,0.00,WSDL version 420,2013-04-14 21:48:00,
2013-04-14 17:50:00,67.6,36.4,28.85,SSE,158,0.0,0.0,32,0.00,,,0.00,WSDL version 420,2013-04-14 21:50:00,
2013-04-14 17:52:00,67.6,36.8,28.85,ESE,120,0.0,2.2,32,0.00,,,0.00,WSDL version 420,2013-04-14 21:52:00,
2013-04-14 17:56:00,67.6,37.0,28.85,North,360,0.0,2.2,33,0.00,,,0.00,WSDL version 420,2013-04-14 21:56:00,
2013-04-14 17:58:00,67.5,37.3,28.85,South,180,0.6,2.2,33,0.00,,,0.00,WSDL version 420,2013-04-14 21:58:00,
2013-04-14 18:02:00,67.5,37.4,28.85,SE,135,0.0,2.0,33,0.00,,,0.00,WSDL version 420,2013-04-14 22:02:00,
2013-04-14 18:04:00,67.5,37.4,28.85,NE,45,0.0,0.0,33,0.00,,,0.00,WSDL version 420,2013-04-14 22:04:00,
2013-04-14 18:06:00,67.5,37.1,28.85,East,90,0.0,0.0,32,0.00,,,0.00,WSDL version 420,2013-04-14 22:06:00,
2013-04-14 18:12:00,67.3,36.7,28.85,South,180,0.0,0.0,33,0.00,,,0.00,WSDL version 420,2013-04-14 22:12:00,
2013-04-14 18:14:00,67.3,37.1,28.85,North,0,0.0,0.0,33,0.00,,,0.00,WSDL version 420,2013-04-14 22:14:00,
2013-04-14 18:18:00,67.2,37.1,28.85,WSW,248,0.8,1.6,33,0.00,,,0.00,WSDL version 420,2013-04-14 22:18:00,
2013-04-14 18:22:00,67.1,37.1,28.82,WNW,293,0.0,1.6,33,0.00,,,0.00,WSDL version 420,2013-04-14 22:22:00,
2013-04-14 18:24:00,67.1,37.1,28.82,SE,146,0.0,1.6,33,0.00,,,0.00,WSDL version 420,2013-04-14 22:24:00,
2013-04-14 18:26:00,67.1,37.1,28.82,South,180,0.0,1.6,33,0.00,,,0.00,WSDL version 420,2013-04-14 22:26:00,
2013-04-14 18:30:00,67.0,37.0,28.82,North,-999,-999.0,-999.0,33,0.00,,,0.00,WSDL version 420,2013-04-14 22:30:00,
2013-04-14 18:32:00,67.0,36.9,28.82,SW,225,0.0,0.9,33,0.00,,,0.00,WSDL version 420,2013-04-14 22:32:00,
2013-04-14 18:36:00,66.9,36.9,28.82,South,188,1.3,2.9,33,0.00,,,0.00,WSDL version 420,2013-04-14 22:36:00,
2013-04-14 18:38:00,66.8,36.8,28.82,SSW,203,1.3,2.9,33,0.00,,,0.00,WSDL version 420,2013-04-14 22:38:00,
2013-04-14 18:44:00,66.7,36.2,28.82,South,180,0.6,2.9,32,0.00,,,0.00,WSDL version 420,2013-04-14 22:44:00,
2013-04-14 18:48:00,66.6,35.4,28.82,SSW,203,1.3,2.5,31,0.00,,,0.00,WSDL version 420,2013-04-14 22:48:00,
2013-04-14 18:50:00,66.6,35.2,28.82,NNW,338,0.6,2.5,31,0.00,,,0.00,WSDL version 420,2013-04-14 22:50:00,
2013-04-14 18:54:00,66.4,34.9,28.82,SE,143,0.9,2.5,31,0.00,,,0.00,WSDL version 420,2013-04-14 22:54:00,
2013-04-14 18:56:00,66.4,34.9,28.82,South,180,1.2,2.5,31,0.00,,,0.00,WSDL version 420,2013-04-14 22:56:00,
2013-04-14 18:58:00,66.4,34.9,28.82,NNE,23,0.9,1.6,31,0.00,,,0.00,WSDL version 420,2013-04-14 22:58:00,
2013-04-14 19:00:00,66.3,34.8,28.82,NNE,28,0.0,2.5,31,0.00,,,0.00,WSDL version 420,2013-04-14 23:00:00,
2013-04-14 19:04:00,66.2,34.7,28.82,South,180,2.2,2.5,31,0.00,,,0.00,WSDL version 420,2013-04-14 23:04:00,
2013-04-14 19:06:00,66.2,34.7,28.82,East,90,2.0,2.5,31,0.00,,,0.00,WSDL version 420,2013-04-14 23:06:00,
2013-04-14 19:12:00,66.0,35.1,28.82,South,180,1.0,2.5,32,0.00,,,0.00,WSDL version 420,2013-04-14 23:12:00,
2013-04-14 19:14:00,65.9,35.3,28.82,South,180,0.0,1.1,32,0.00,,,0.00,WSDL version 420,2013-04-14 23:14:00,
2013-04-14 19:16:00,65.9,35.2,28.82,SW,225,0.0,1.1,32,0.00,,,0.00,WSDL version 420,2013-04-14 23:16:00,
2013-04-14 19:20:00,65.8,35.2,28.82,NE,45,0.0,0.9,32,0.00,,,0.00,WSDL version 420,2013-04-14 23:20:00,
2013-04-14 19:26:00,65.6,35.8,28.79,NW,323,0.4,2.5,33,0.00,,,0.00,WSDL version 420,2013-04-14 23:26:00,
2013-04-14 19:32:00,65.5,35.6,28.79,SE,124,0.0,2.5,33,0.00,,,0.00,WSDL version 420,2013-04-14 23:32:00,
2013-04-14 19:34:00,65.4,35.6,28.79,SE,143,0.4,2.5,33,0.00,,,0.00,WSDL version 420,2013-04-14 23:34:00,
2013-04-14 19:38:00,65.3,35.5,28.79,South,180,1.0,2.0,33,0.00,,,0.00,WSDL version 420,2013-04-14 23:38:00,
2013-04-14 19:42:00,65.1,35.3,28.79,South,180,0.0,2.0,33,0.00,,,0.00,WSDL version 420,2013-04-14 23:42:00,
2013-04-14 19:44:00,65.1,35.3,28.79,South,180,0.0,1.6,33,0.00,,,0.00,WSDL version 420,2013-04-14 23:44:00,
2013-04-14 19:48:00,65.0,35.6,28.79,East,90,0.9,0.0,34,0.00,,,0.00,WSDL version 420,2013-04-14 23:48:00,
2013-04-14 19:50:00,64.9,35.8,28.79,East,90,0.9,0.0,34,0.00,,,0.00,WSDL version 420,2013-04-14 23:50:00,
2013-04-14 19:56:00,64.6,36.0,28.79,North,349,0.0,1.1,35,0.00,,,0.00,WSDL version 420,2013-04-14 23:56:00,
2013-04-14 19:58:00,64.5,36.1,28.79,NNW,338,0.0,1.1,35,0.00,,,0.00,WSDL version 420,2013-04-14 23:58:00,
2013-04-14 20:04:00,64.2,36.7,28.79,South,176,0.0,0.0,36,0.00,,,0.00,WSDL version 420,2013-04-15 00:04:00,
2013-04-14 20:06:00,64.1,36.6,28.79,South,180,0.0,0.0,36,0.00,,,0.00,WSDL version 420,2013-04-15 00:06:00,
2013-04-14 20:08:00,64.0,36.5,28.79,South,180,0.0,0.0,36,0.00,,,0.00,WSDL version 420,2013-04-15 00:08:00,
2013-04-14 20:14:00,63.8,36.9,28.79,East,90,0.0,0.0,37,0.00,,,0.00,WSDL version 420,2013-04-15 00:14:00,
2013-04-14 20:16:00,63.7,36.9,28.79,SSW,203,0.0,0.0,37,0.00,,,0.00,WSDL version 420,2013-04-15 00:16:00,
2013-04-14 20:18:00,63.6,36.9,28.79,SSE,158,0.0,0.0,37,0.00,,,0.00,WSDL version 420,2013-04-15 00:18:00,
2013-04-14 20:22:00,63.5,36.8,28.79,SSE,158,0.0,0.0,37,0.00,,,0.00,WSDL version 420,2013-04-15 00:22:00,
2013-04-14 20:24:00,63.5,36.8,28.79,South,173,0.0,0.0,37,0.00,,,0.00,WSDL version 420,2013-04-15 00:24:00,
2013-04-14 20:28:00,63.4,37.0,28.79,SW,225,0.9,2.2,38,0.00,,,0.00,WSDL version 420,2013-04-15 00:28:00,
2013-04-14 20:30:00,63.3,37.1,28.79,ESE,113,0.4,2.2,38,0.00,,,0.00,WSDL version 420,2013-04-15 00:30:00,
2013-04-14 20:34:00,63.1,37.0,28.79,South,180,0.0,2.2,38,0.00,,,0.00,WSDL version 420,2013-04-15 00:34:00,
2013-04-14 20:35:00,63.1,37.0,28.79,SW,225,0.0,2.2,38,0.00,,,0.00,WSDL version 420,2013-04-15 00:35:00,
2013-04-14 20:37:00,63.1,37.1,28.79,West,270,0.0,0.0,38,0.00,,,0.00,WSDL version 420,2013-04-15 00:37:00,
2013-04-14 20:43:00,63.0,37.5,28.79,NNW,338,0.0,2.2,39,0.00,,,0.00,WSDL version 420,2013-04-15 00:43:00,
2013-04-14 20:47:00,62.9,38.0,28.79,SSE,158,1.0,2.2,40,0.00,,,0.00,WSDL version 420,2013-04-15 00:47:00,
2013-04-14 20:49:00,62.8,38.0,28.79,ENE,68,0.0,2.2,40,0.00,,,0.00,WSDL version 420,2013-04-15 00:49:00,
2013-04-14 20:55:00,62.7,37.6,28.82,NNW,338,0.0,1.3,40,0.00,,,0.00,WSDL version 420,2013-04-15 00:55:00,
2013-04-14 20:59:00,62.6,37.8,28.82,NNW,338,0.0,0.0,40,0.00,,,0.00,WSDL version 420,2013-04-15 00:59:00,
2013-04-14 21:01:00,62.6,37.8,28.82,NNW,338,0.0,0.0,40,0.00,,,0.00,WSDL version 420,2013-04-15 01:01:00,
2013-04-14 21:03:00,62.6,38.0,28.82,NNW,338,0.0,0.0,40,0.00,,,0.00,WSDL version 420,2013-04-15 01:03:00,
2013-04-14 21:07:00,62.6,38.0,28.82,NNW,338,0.0,0.0,40,0.00,,,0.00,WSDL version 420,2013-04-15 01:07:00,
2013-04-14 21:09:00,62.6,38.0,28.82,NNW,338,0.0,0.0,40,0.00,,,0.00,WSDL version 420,2013-04-15 01:09:00,
2013-04-14 21:11:00,62.6,37.9,28.82,NNW,338,0.0,0.0,40,0.00,,,0.00,WSDL version 420,2013-04-15 01:11:00,
2013-04-14 21:13:00,62.5,37.9,28.82,NNW,338,0.0,0.0,40,0.00,,,0.00,WSDL version 420,2013-04-15 01:13:00,
2013-04-14 21:15:00,62.4,37.8,28.82,NE,34,0.0,0.0,40,0.00,,,0.00,WSDL version 420,2013-04-15 01:15:00,
2013-04-14 21:19:00,62.4,38.1,28.82,East,90,0.0,0.0,41,0.00,,,0.00,WSDL version 420,2013-04-15 01:19:00,
2013-04-14 21:21:00,62.4,38.2,28.82,East,90,0.0,0.0,40,0.00,,,0.00,WSDL version 420,2013-04-15 01:21:00,
2013-04-14 21:23:00,62.4,38.1,28.82,NNW,338,0.0,0.0,41,0.00,,,0.00,WSDL version 420,2013-04-15 01:23:00,
2013-04-14 21:29:00,62.2,38.6,28.82,WSW,255,0.0,0.0,42,0.00,,,0.00,WSDL version 420,2013-04-15 01:29:00,
2013-04-14 21:31:00,62.2,38.9,28.82,North,0,0.0,0.0,42,0.00,,,0.00,WSDL version 420,2013-04-15 01:31:00,
2013-04-14 21:35:00,62.2,38.9,28.82,SSW,203,0.0,0.0,43,0.00,,,0.00,WSDL version 420,2013-04-15 01:35:00,
2013-04-14 21:37:00,62.1,38.9,28.82,SSW,203,0.0,0.0,42,0.00,,,0.00,WSDL version 420,2013-04-15 01:37:00,
2013-04-14 21:41:00,61.9,39.2,28.82,North,360,0.0,0.0,44,0.00,,,0.00,WSDL version 420,2013-04-15 01:41:00,
2013-04-14 21:43:00,61.9,39.3,28.82,North,360,0.0,0.0,43,0.00,,,0.00,WSDL version 420,2013-04-15 01:43:00,
2013-04-14 21:47:00,61.8,39.6,28.82,North,360,0.0,0.0,44,0.00,,,0.00,WSDL version 420,2013-04-15 01:47:00,
2013-04-14 21:51:00,61.7,39.6,28.82,North,360,0.0,0.0,44,0.00,,,0.00,WSDL version 420,2013-04-15 01:51:00,
2013-04-14 21:53:00,61.7,39.6,28.82,North,360,0.0,0.0,44,0.00,,,0.00,WSDL version 420,2013-04-15 01:53:00,
2013-04-14 21:59:00,61.6,39.5,28.82,North,360,0.0,0.0,44,0.00,,,0.00,WSDL version 420,2013-04-15 01:59:00,
2013-04-14 22:02:00,61.5,39.4,28.82,North,360,0.0,0.0,44,0.00,,,0.00,WSDL version 420,2013-04-15 02:02:00,
2013-04-14 22:05:00,61.3,39.7,28.82,North,360,0.0,0.0,45,0.00,,,0.00,WSDL version 420,2013-04-15 02:05:00,
2013-04-14 22:07:00,61.2,39.7,28.82,North,360,0.0,0.0,45,0.00,,,0.00,WSDL version 420,2013-04-15 02:07:00,
2013-04-14 22:13:00,60.9,40.0,28.82,North,360,2.4,3.4,47,0.00,,,0.00,WSDL version 420,2013-04-15 02:13:00,
2013-04-14 22:19:00,60.6,40.3,28.82,SSW,203,0.0,3.4,47,0.00,,,0.00,WSDL version 420,2013-04-15 02:19:00,
2013-04-14 22:25:00,60.7,40.4,28.82,South,180,1.0,2.5,47,0.00,,,0.00,WSDL version 420,2013-04-15 02:25:00,
2013-04-14 22:29:00,60.8,40.5,28.82,South,180,0.0,2.5,47,0.00,,,0.00,WSDL version 420,2013-04-15 02:29:00,
2013-04-14 22:31:00,60.8,40.5,28.82,South,180,0.0,2.5,47,0.00,,,0.00,WSDL version 420,2013-04-15 02:31:00,
2013-04-14 22:33:00,60.8,40.5,28.82,North,-999,-999.0,-999.0,47,0.00,,,0.00,WSDL version 420,2013-04-15 02:33:00,
2013-04-14 22:39:00,60.8,40.6,28.79,South,180,0.0,0.0,47,0.00,,,0.00,WSDL version 420,2013-04-15 02:39:00,
2013-04-14 22:43:00,60.8,40.5,28.79,South,180,0.0,0.0,47,0.00,,,0.00,WSDL version 420,2013-04-15 02:43:00,
2013-04-14 22:49:00,60.7,40.9,28.79,South,180,0.0,2.0,48,0.00,,,0.00,WSDL version 420,2013-04-15 02:49:00,
2013-04-14 22:51:00,60.7,40.8,28.79,SW,225,0.0,2.0,48,0.00,,,0.00,WSDL version 420,2013-04-15 02:51:00,
2013-04-14 22:53:00,60.7,40.8,28.79,West,270,0.0,2.0,48,0.00,,,0.00,WSDL version 420,2013-04-15 02:53:00,
2013-04-14 22:55:00,60.6,40.8,28.79,North,0,0.0,2.0,48,0.00,,,0.00,WSDL version 420,2013-04-15 02:55:00,
2013-04-14 22:59:00,60.5,40.7,28.79,West,270,0.0,0.0,48,0.00,,,0.00,WSDL version 420,2013-04-15 02:59:00,
2013-04-14 23:01:00,60.5,40.7,28.79,West,279,0.0,0.0,48,0.00,,,0.00,WSDL version 420,2013-04-15 03:01:00,
2013-04-14 23:05:00,60.5,40.8,28.79,SSW,203,0.0,2.2,49,0.00,,,0.00,WSDL version 420,2013-04-15 03:05:00,
2013-04-14 23:13:00,60.4,41.0,28.79,SSW,212,1.7,3.8,49,0.00,,,0.00,WSDL version 420,2013-04-15 03:13:00,
2013-04-14 23:17:00,60.2,41.4,28.79,West,270,0.0,3.8,50,0.00,,,0.00,WSDL version 420,2013-04-15 03:17:00,
2013-04-14 23:19:00,60.1,41.5,28.79,South,180,0.8,3.8,51,0.00,,,0.00,WSDL version 420,2013-04-15 03:19:00,
2013-04-14 23:23:00,59.8,42.1,28.82,SSE,158,0.9,2.5,52,0.00,,,0.00,WSDL version 420,2013-04-15 03:23:00,
2013-04-14 23:25:00,59.7,42.3,28.82,South,191,0.4,2.5,53,0.00,,,0.00,WSDL version 420,2013-04-15 03:25:00,
2013-04-14 23:31:00,59.2,42.6,28.82,South,180,0.0,2.0,54,0.00,,,0.00,WSDL version 420,2013-04-15 03:31:00,
2013-04-14 23:33:00,59.1,42.5,28.82,South,180,0.0,2.0,55,0.00,,,0.00,WSDL version 420,2013-04-15 03:33:00,
2013-04-14 23:37:00,58.7,42.9,28.82,South,180,0.0,0.0,56,0.00,,,0.00,WSDL version 420,2013-04-15 03:37:00,
2013-04-14 23:39:00,58.6,43.0,28.82,South,180,0.0,0.0,56,0.00,,,0.00,WSDL version 420,2013-04-15 03:39:00,
2013-04-14 23:45:00,58.4,43.0,28.82,North,360,0.0,0.0,57,0.00,,,0.00,WSDL version 420,2013-04-15 03:45:00,
2013-04-14 23:49:00,58.1,43.6,28.82,North,0,0.0,0.0,59,0.00,,,0.00,WSDL version 420,2013-04-15 03:49:00,
2013-04-14 23:51:00,58.1,43.9,28.82,North,360,0.0,0.0,59,0.00,,,0.00,WSDL version 420,2013-04-15 03:51:00,
2013-04-14 23:57:00,57.7,43.8,28.82,North,360,0.0,0.0,61,0.00,,,0.00,WSDL version 420,2013-04-15 03:57:00,